{"data":{"norad_id":54134,"epoch":"2026-05-25T00:33:15.702624Z","epoch_age_seconds":63201,"freshness":"FRESH","line1":"1 54134U 22138X   26145.02309841  .00000022  00000+0  21564-4 0  9993","line2":"2 54134  87.9148 309.5910 0001652  93.8026 266.3295 13.19726706173775","mean_motion":13.19726706,"eccentricity":0.0001652,"inclination_deg":87.9148,"raan_deg":309.591,"arg_perigee_deg":93.8026,"mean_anomaly_deg":266.3295,"bstar":2.1564e-5,"rev_number":17377,"period_min":109.11350004915,"perigee_km":1184.514477011,"apogee_km":1187.0135899125,"semimajor_km":7563.9010334618,"source":"CELESTRAK","updated_at":"2026-05-25T13:38:22.589119Z"}}